Hourly Weather Holoskove

Today, 11 April, Sunday

Time Temperature Precipitation Wind Pressure Humidity
00:00 +6°C° 0 mm 2 mps 759 mmHg 51%
01:00 +6°C° 0 mm 1 mps 759 mmHg 52%
02:00 +6°C° 0 mm 1 mps 759 mmHg 54%
03:00 +5°C° 0 mm 1 mps 759 mmHg 55%
04:00 +5°C° 0 mm 1 mps 760 mmHg 57%
05:00 +4°C° 0 mm 0 mps 760 mmHg 59%
06:00 +6°C° 0 mm 1 mps 760 mmHg 55%
07:00 +8°C° 0 mm 1 mps 760 mmHg 51%
08:00 +9°C° 0 mm 1 mps 761 mmHg 47%
09:00 +10°C° 0 mm 2 mps 760 mmHg 42%
10:00 +12°C° 0 mm 2 mps 760 mmHg 37%
11:00 +13°C° 0 mm 2 mps 760 mmHg 32%
12:00 +14°C° 0 mm 2 mps 760 mmHg 32%
13:00 +15°C° 0 mm 2 mps 759 mmHg 31%
14:00 +15°C° 0 mm 2 mps 759 mmHg 30%
15:00 +14°C° 0 mm 3 mps 759 mmHg 32%
16:00 +14°C° 0 mm 3 mps 759 mmHg 33%
17:00 +14°C° 0 mm 3 mps 759 mmHg 34%
18:00 +13°C° 0 mm 3 mps 759 mmHg 39%
19:00 +11°C° 0 mm 3 mps 759 mmHg 45%
20:00 +10°C° 0 mm 2 mps 759 mmHg 50%
21:00 +9°C° 0 mm 3 mps 759 mmHg 52%
22:00 +9°C° 0 mm 3 mps 759 mmHg 54%
23:00 +8°C° 0 mm 3 mps 759 mmHg 56%

Tomorrow, 12 April, Monday

Time Temperature Precipitation Wind Pressure Humidity
00:00 +8°C° 0 mm 3 mps 759 mmHg 57%
01:00 +7°C° 0 mm 3 mps 758 mmHg 58%
02:00 +7°C° 0 mm 3 mps 758 mmHg 58%
03:00 +7°C° 0 mm 3 mps 758 mmHg 60%
04:00 +5°C° 0 mm 3 mps 758 mmHg 62%
05:00 +5°C° 0 mm 3 mps 757 mmHg 64%
06:00 +7°C° 0 mm 3 mps 757 mmHg 61%
07:00 +7°C° 0 mm 4 mps 757 mmHg 57%
08:00 +10°C° 0 mm 4 mps 757 mmHg 54%
09:00 +11°C° 0 mm 4 mps 757 mmHg 49%
10:00 +12°C° 0 mm 4 mps 756 mmHg 45%
11:00 +14°C° 0 mm 4 mps 756 mmHg 40%
12:00 +14°C° 0 mm 4 mps 756 mmHg 42%
13:00 +15°C° 0 mm 4 mps 755 mmHg 43%
14:00 +17°C° 0 mm 4 mps 755 mmHg 45%
15:00 +15°C° 0 mm 4 mps 755 mmHg 51%
16:00 +15°C° 0 mm 4 mps 755 mmHg 58%
17:00 +14°C° 0 mm 4 mps 755 mmHg 64%
18:00 +13°C° 0 mm 3 mps 755 mmHg 70%
19:00 +13°C° 0 mm 2 mps 755 mmHg 75%
20:00 +12°C° 0 mm 2 mps 755 mmHg 80%
21:00 +12°C° 0 mm 1 mps 755 mmHg 80%
22:00 +12°C° 0 mm 1 mps 755 mmHg 81%
23:00 +12°C° 0 mm 1 mps 754 mmHg 81%

Day after tomorrow, 13 April, Tuesday

Time Temperature Precipitation Wind Pressure Humidity
00:00 +12°C° 0 mm 1 mps 754 mmHg 81%
01:00 +12°C° 0 mm 1 mps 754 mmHg 82%
02:00 +12°C° 0 mm 1 mps 754 mmHg 83%
03:00 +11°C° 0 mm 1 mps 754 mmHg 85%
04:00 +11°C° 0 mm 1 mps 754 mmHg 86%
05:00 +11°C° 0 mm 1 mps 754 mmHg 88%
06:00 +11°C° 0 mm 1 mps 754 mmHg 86%
07:00 +12°C° 0 mm 1 mps 754 mmHg 84%
08:00 +11°C° 0 mm 0 mps 754 mmHg 82%
09:00 +13°C° 0 mm 1 mps 753 mmHg 81%
10:00 +13°C° 0 mm 1 mps 753 mmHg 80%
11:00 +13°C° 0 mm 1 mps 753 mmHg 79%
12:00 +13°C° 0 mm 2 mps 753 mmHg 79%
13:00 +13°C° 0 mm 2 mps 753 mmHg 79%
14:00 +13°C° 0 mm 2 mps 753 mmHg 79%
15:00 +13°C° 0 mm 2 mps 753 mmHg 80%
16:00 +13°C° 0 mm 2 mps 753 mmHg 80%
17:00 +13°C° 0 mm 2 mps 752 mmHg 81%
18:00 +13°C° 0 mm 2 mps 753 mmHg 82%
19:00 +12°C° 0 mm 2 mps 753 mmHg 82%
20:00 +12°C° 0 mm 2 mps 753 mmHg 83%
21:00 +10°C° 0 mm 3 mps 753 mmHg 82%
22:00 +10°C° 0 mm 3 mps 752 mmHg 82%
23:00 +9°C° 0 mm 3 mps 752 mmHg 81%

14 April, Wednesday

Time Temperature Precipitation Wind Pressure Humidity
00:00 +9°C° 0 mm 3 mps 752 mmHg 82%
01:00 +9°C° 0 mm 3 mps 752 mmHg 84%
02:00 +8°C° 0 mm 3 mps 752 mmHg 86%
03:00 +8°C° 0 mm 3 mps 752 mmHg 87%
04:00 +7°C° 0 mm 4 mps 752 mmHg 89%
05:00 +7°C° 0 mm 4 mps 751 mmHg 90%
06:00 +7°C° 0 mm 4 mps 751 mmHg 88%
07:00 +7°C° 0 mm 4 mps 752 mmHg 86%
08:00 +8°C° 0 mm 4 mps 752 mmHg 84%
09:00 +10°C° 0 mm 4 mps 751 mmHg 78%
10:00 +11°C° 0 mm 4 mps 751 mmHg 72%
11:00 +12°C° 0 mm 4 mps 751 mmHg 66%
12:00 +12°C° 0.1 mm 5 mps 751 mmHg 64%
13:00 +13°C° 0.1 mm 5 mps 751 mmHg 62%
14:00 +13°C° 0.1 mm 5 mps 750 mmHg 60%
15:00 +13°C° 0.1 mm 4 mps 750 mmHg 61%
16:00 +13°C° 0.1 mm 4 mps 750 mmHg 61%
17:00 +13°C° 0.1 mm 4 mps 750 mmHg 61%
18:00 +12°C° 0 mm 3 mps 750 mmHg 67%
19:00 +10°C° 0 mm 2 mps 750 mmHg 72%
20:00 +9°C° 0 mm 2 mps 750 mmHg 77%
21:00 +10°C° 0 mm 1 mps 750 mmHg 77%
22:00 +10°C° 0 mm 1 mps 750 mmHg 78%
23:00 +10°C° 0 mm 1 mps 750 mmHg 78%

15 April, Thursday

Time Temperature Precipitation Wind Pressure Humidity
00:00 +10°C° 0.1 mm 1 mps 750 mmHg 80%
01:00 +10°C° 0.1 mm 1 mps 749 mmHg 82%
02:00 +9°C° 0.1 mm 1 mps 749 mmHg 84%
03:00 +8°C° 0.2 mm 2 mps 749 mmHg 85%
04:00 +8°C° 0.2 mm 2 mps 749 mmHg 87%
05:00 +9°C° 0.2 mm 3 mps 749 mmHg 88%
06:00 +9°C° 0 mm 3 mps 749 mmHg 87%
07:00 +9°C° 0 mm 3 mps 749 mmHg 85%
08:00 +10°C° 0 mm 3 mps 749 mmHg 83%
09:00 +10°C° 0 mm 3 mps 749 mmHg 80%
10:00 +11°C° 0 mm 3 mps 749 mmHg 76%
11:00 +12°C° 0 mm 3 mps 749 mmHg 73%
12:00 +12°C° 0.2 mm 3 mps 749 mmHg 74%
13:00 +12°C° 0.2 mm 3 mps 749 mmHg 76%
14:00 +12°C° 0.2 mm 3 mps 749 mmHg 77%
15:00 +12°C° 0.2 mm 3 mps 749 mmHg 81%
16:00 +11°C° 0.2 mm 3 mps 749 mmHg 84%
17:00 +10°C° 0.2 mm 3 mps 749 mmHg 87%
18:00 +10°C° 0.2 mm 2 mps 749 mmHg 89%
19:00 +11°C° 0.2 mm 1 mps 749 mmHg 90%
20:00 +9°C° 0.2 mm 0 mps 749 mmHg 92%
21:00 +9°C° 0.3 mm 0 mps 748 mmHg 92%
22:00 +9°C° 0.3 mm 0 mps 748 mmHg 93%
23:00 +10°C° 0.3 mm 1 mps 748 mmHg 93%

16 April, Friday

Time Temperature Precipitation Wind Pressure Humidity
00:00 +10°C° 0.5 mm 1 mps 748 mmHg 94%
01:00 +10°C° 0.5 mm 1 mps 747 mmHg 95%
02:00 +10°C° 0.5 mm 1 mps 747 mmHg 95%
03:00 +10°C° 0.7 mm 1 mps 747 mmHg 96%
04:00 +10°C° 0.7 mm 1 mps 747 mmHg 96%
05:00 +10°C° 0.7 mm 1 mps 747 mmHg 96%
06:00 +9°C° 0.6 mm 2 mps 747 mmHg 95%
07:00 +9°C° 0.6 mm 2 mps 747 mmHg 95%
08:00 +9°C° 0.6 mm 2 mps 747 mmHg 94%
09:00 +10°C° 0.6 mm 2 mps 747 mmHg 92%
10:00 +10°C° 0.6 mm 2 mps 747 mmHg 90%
11:00 +11°C° 0.6 mm 1 mps 747 mmHg 87%
12:00 +10°C° 0.6 mm 2 mps 747 mmHg 88%
13:00 +10°C° 0.6 mm 2 mps 747 mmHg 89%
14:00 +10°C° 0.6 mm 2 mps 747 mmHg 89%
15:00 +10°C° 1.4 mm 3 mps 747 mmHg 90%
16:00 +10°C° 1.4 mm 4 mps 747 mmHg 91%
17:00 +9°C° 1.4 mm 5 mps 747 mmHg 91%
18:00 +10°C° 0.8 mm 6 mps 747 mmHg 89%
19:00 +10°C° 0.8 mm 6 mps 748 mmHg 88%
20:00 +10°C° 0.8 mm 7 mps 748 mmHg 86%
21:00 +9°C° 0 mm 7 mps 749 mmHg 87%
22:00 +8°C° 0 mm 6 mps 749 mmHg 89%
23:00 +7°C° 0 mm 6 mps 750 mmHg 90%
Show more